FW7079 Weather Reports


time (UTC)temp
F
wind
direction
speed
knots
gust
knots
rain 1hr
in
rain 24hr
in
rain mn
in
humidity
%
barometer
mb
20260906201555 105 0.0 0.0 0.00 0.00 0.00 32 1013.1
20260906194559 104 0.0 0.0 0.00 0.00 0.00 33 1013.6
20260906193103 103 0.0 0.0 0.00 0.00 0.00 34 1013.6
20260906191618 101 0.0 0.0 0.00 0.00 0.00 36 1013.8
20260906184559 102 0.0 0.0 0.00 0.00 0.00 38 1014.3
20260906183056 102 0.0 0.0 0.00 0.00 0.00 37 1014.5
20260906181602 102 0.0 0.0 0.00 0.00 0.00 38 1014.8
20260906180116 101 0.0 0.0 0.00 0.00 0.00 39 1015.0
20260906174559 102 0.0 0.0 0.00 0.00 0.00 40 1015.2
20260906173105 101 0.0 0.0 0.00 0.00 0.00 40 1015.4
20260906171604 101 0.0 0.0 0.00 0.00 0.00 41 1015.7
20260906170112 101 0.0 0.0 0.00 0.00 0.00 41 1016.0
20260906164559 99 0.0 0.0 0.00 0.00 0.00 42 1016.2
20260906163110 97 0.0 0.0 0.00 0.00 0.00 45 1016.3
20260906161601 97 0.0 0.0 0.00 0.00 0.00 48 1016.2
20260906160101 98 0.0 0.0 0.00 0.00 0.00 47 1016.1
20260906154556 96 241 0.0 2.6 0.00 0.00 0.00 49 1016.1
20260906153102 94 0 0.0 1.7 0.00 0.00 0.00 52 1016.0
20260906151602 91 0 0.0 2.6 0.00 0.00 0.00 56 1016.0
20260906150111 91 0 0.0 1.7 0.00 0.00 0.00 57 1016.0
20260906144602 90 223 0.0 0.0 0.00 0.00 0.00 58 1016.0
20260906143104 87 0 0.0 0.9 0.00 0.00 0.00 63 1015.9
20260906141558 84 195 0.0 0.9 0.00 0.00 0.00 68 1015.9
20260906140101 81 0 0.0 0.0 0.00 0.00 0.00 75 1015.8
20260906134558 79 0 0.0 0.0 0.00 0.00 0.00 78 1015.7
20260906133124 77 0 0.0 0.0 0.00 0.00 0.00 79 1015.6
20260906131559 75 0 0.0 0.0 0.00 0.00 0.00 82 1015.5
20260906130115 73 0 0.0 0.0 0.00 0.00 0.00 84 1015.4
20260906124603 71 0 0.0 0.0 0.00 0.00 0.00 85 1015.3
20260906123057 71 0 0.0 0.0 0.00 0.00 0.00 85 1015.2
20260906121602 70 0 0.0 0.0 0.00 0.00 0.00 85 1015.1
20260906120101 70 0 0.0 0.0 0.00 0.00 0.00 84 1015.0
20260906114602 70 0 0.0 0.0 0.00 0.00 0.00 84 1014.8
20260906113058 70 0 0.0 0.0 0.00 0.00 0.00 84 1014.7
20260906111618 71 0 0.0 0.0 0.00 0.00 0.00 84 1014.4
20260906110059 71 0 0.0 0.0 0.00 0.00 0.00 84 1014.3
20260906104602 71 0 0.0 0.0 0.00 0.00 0.00 84 1014.3
20260906103058 71 0 0.0 0.0 0.00 0.00 0.00 83 1014.2
20260906101557 71 0 0.0 0.0 0.00 0.00 0.00 83 1014.1
20260906100057 71 0 0.0 0.0 0.00 0.00 0.00 83 1014.1
20260906094559 72 0 0.0 0.0 0.00 0.00 0.00 82 1014.1
20260906093103 72 0 0.0 0.0 0.00 0.00 0.00 82 1014.0
20260906091601 72 0 0.0 0.0 0.00 0.00 0.00 82 1014.2
20260906084606 72 0 0.0 0.0 0.00 0.00 0.00 81 1014.0
20260906083104 73 0 0.0 0.0 0.00 0.00 0.00 81 1014.0
20260906081600 73 0 0.0 0.0 0.00 0.00 0.00 80 1013.8
20260906080104 73 0 0.0 0.0 0.00 0.00 0.00 79 1013.8
20260906074603 73 0 0.0 0.0 0.00 0.00 0.00 79 1013.9
20260906073106 74 0 0.0 0.0 0.00 0.00 0.00 78 1013.8
20260906071603 74 0 0.0 0.0 0.00 0.00 0.00 78 1013.8
20260906070103 74 0 0.0 0.0 0.00 0.00 0.00 77 1014.0
20260906064558 74 0 0.0 0.0 0.00 0.00 0.00 77 1013.8
20260906063100 75 0 0.0 0.0 0.00 0.00 0.00 77 1013.8
20260906061605 75 0 0.0 0.0 0.00 0.00 0.00 76 1013.9
20260906060105 75 0 0.0 0.0 0.00 0.00 0.00 76 1014.0
20260906054606 76 0 0.0 0.0 0.00 0.00 0.00 75 1013.9
20260906053102 76 0 0.0 0.0 0.00 0.00 0.00 75 1013.8
20260906051611 76 0 0.0 0.0 0.00 0.00 0.00 74 1013.8
20260906044607 76 0 0.0 0.0 0.00 0.00 0.00 73 1013.5
20260906043056 77 0 0.0 0.0 0.00 0.00 0.00 73 1013.6
20260906041557 77 0 0.0 0.0 0.00 0.00 0.00 72 1013.6
20260906040137 78 0 0.0 0.0 0.00 0.00 0.00 71 1013.7
20260906034615 79 0 0.0 0.0 0.00 0.00 0.00 71 1013.7
20260906033106 79 0 0.0 0.0 0.00 0.00 0.00 70 1013.6
20260906031556 79 0 0.0 0.0 0.00 0.00 0.00 69 1013.4
20260906024611 81 0 0.0 0.0 0.00 0.00 0.00 67 1013.3
20260906023103 82 0 0.0 0.0 0.00 0.00 0.00 67 1013.2
20260906021601 82 0 0.0 0.0 0.00 0.00 0.00 65 1013.0
20260906020058 83 0 0.0 0.0 0.00 0.00 0.00 63 1012.8
20260906014601 85 0 0.0 0.0 0.00 0.00 0.00 62 1012.8
20260906013102 86 0 0.0 0.0 0.00 0.00 0.00 59 1012.5
20260906011602 88 0 0.0 0.0 0.00 0.00 0.00 56 1012.4
20260906010106 90 0 0.0 0.0 0.00 0.00 0.00 53 1012.3
20260906004604 92 0 0.0 0.0 0.00 0.00 0.00 49 1012.2
20260906003102 94 0 0.0 0.0 0.00 0.00 0.00 46 1012.1
20260906001609 96 0 0.0 0.9 0.00 0.00 0.00 42 1011.9
20260906000100 97 0 0.0 2.6 0.00 0.00 0.00 40 1012.0
20260905234601 98 136 0.0 4.3 0.00 0.00 0.00 40 1011.9
20260905233104 98 121 0.0 3.5 0.00 0.00 0.00 39 1011.7
20260905231605 99 143 1.7 7.0 0.00 0.00 0.00 38 1011.6
20260905230108 98 176 0.0 1.7 0.00 0.00 0.00 38 1011.6
20260905224615 99 136 0.9 5.2 0.00 0.00 0.00 38 1011.6
20260905223106 99 152 0.9 3.5 0.00 0.00 0.00 40 1011.5
20260905221605 99 148 0.9 4.3 0.00 0.00 0.00 39 1011.5
20260905220059 100 0 0.9 4.3 0.00 0.00 0.00 38 1011.7
20260905214558 100 50 0.9 4.3 0.00 0.00 0.00 39 1011.9
20260905213105 101 142 0.9 5.2 0.00 0.00 0.00 38 1012.1
20260905211559 101 155 1.7 0.0 0.00 0.00 0.00 37 1012.2
20260905210105 101 0.0 0.0 0.00 0.00 0.00 38 1012.5
20260905204606 102 0.0 0.0 0.00 0.00 0.00 38 1012.7
20260905203059 101 0.0 0.0 0.00 0.00 0.00 38 1012.9